Regional Weather Roundup
Issued by NWS

Home | Current Version | Previous Version | Graphics & Text | Print | Product List | Glossary On
Versions: 1 2 3 4 5 6 7 8 9 10 11 12 13 14 15 16 17 18 19 20 21 22 23 24 25 26 27 28 29 30 31 32 33 34 35 36 37 38 39 40 41 42 43 44 45 46 47 48 49 50
333
ASUS45 KBOI 081310
RWRID

IDAHO REGIONAL WEATHER ROUNDUP
NATIONAL WEATHER SERVICE BOISE ID
600 AM MST THU DEC 08 2016

NOTE: "FAIR" INDICATES FEW OR NO CLOUDS BELOW 12000 FEET
WITH NO SIGNIFICANT WEATHER AND/OR OBSTRUCTIONS TO VISIBILITY

IDZ012-014-081400-
SOUTHWEST IDAHO


CITY           SKY/WX    TMP DP  RH WIND       PRES   REMARKS
BOISE          CLOUDY    18   9  68 SE9       30.26F WCI   7
CALDWELL       CLOUDY    20  14  77 E9        30.30F WCI   9
MOUNTAIN HOME  CLOUDY    19  13  78 SE9       30.26F WCI   8
$$

IDZ016-017-081400-
SOUTHCENTRAL IDAHO


CITY           SKY/WX    TMP DP  RH WIND       PRES   REMARKS
BURLEY         PTCLDY     9   4  80 E13       30.26F WCI  -7
JEROME         MOCLDY    14   8  77 NE22G30   30.24F WCI  -4
TWIN FALLS     CLOUDY    10   5  80 E10       30.24F WCI  -4
$$

IDZ019>023-081400-
SOUTHEAST IDAHO


CITY           SKY/WX    TMP DP  RH WIND       PRES   REMARKS
IDAHO FALLS    CLOUDY     5   0  79 N3        30.31S
POCATELLO      CLOUDY    -2  -7  79 NE6       30.30F WCI -14
REXBURG        CLOUDY    -3  -8  79 NE5       30.31S WCI -13
$$

IDZ006-010-011-018-031-032-081400-
CENTRAL IDAHO MOUNTAINS


CITY           SKY/WX    TMP DP  RH WIND       PRES   REMARKS
MCCALL         CLOUDY    -2  -7  79 SE3       30.13F HAZE
HAILEY         CLEAR      3  -4  72 NW9       30.26S WCI -11
STANLEY          N/A    -22 -28  74 CALM      30.17F
SALMON         CLOUDY    -6  -6 100 CALM      30.35S
CHALLIS        PTCLDY    -1  -4  87 CALM      30.28S
$$

IDZ002-004-006-007-026-081400-
NORTHERN IDAHO


CITY           SKY/WX    TMP DP  RH WIND       PRES   REMARKS
LEWISTON       PTCLDY    13   9  84 SE6       30.35F WCI   4
LOWELL           N/A     17  12  80 N5        30.45F WCI  10
COEUR D`ALENE  CLEAR     11   6  81 NE10      30.36F WCI  -3
MULLAN PASS    CLOUDY    -1  -4  87 SE7       30.08F FOG     WCI -14
$$




USA.gov is the U.S. government's official web portal to all federal, state and local government web resources and services.